Location: Rounton
(54.4000°N, 1.3500°W)
Time: 13:52:52
(UTC+00:00)

Transit 2A - Pass Details

Date: 02 December 2021
Orbit: 591 x 967 km, 66.7° (Epoch: 21 January)

Event Time Altitude Azimuth Distance (km) Brightness Sun altitude
Rises 03:12:32 0° 259° (W) 3,441 - -40.9°
Reaches altitude 10° 03:15:09 10° 268° (W) 2,558 - -40.6°
Maximum altitude 03:20:40 37° 335° (NNW) 1,429 - -39.8°
Exits shadow 03:23:50 23° 25° (NNE) 1,907 8.3 -39.4°
Drops below altitude 10° 03:26:32 10° 41° (NE) 2,706 9.4 -39.0°
Sets 03:29:22 0° 50° (NE) 3,665 10.3 -38.6°
